Hourly Data Report for August 28, 2003

TORONTO CITY
ONTARIO

43°40'00.000" N
79°24'00.000" W
112.50 m
6158355
71508
XTO

Download Data

Hourly Data (August 2003)
Hourly Data Report for August 28, 2003
TIME
LST
Temp Definition
°C
Dew Point Definition
°C
Rel Hum Definition
%
Precip. Amount Definition
mm

Wind Dir Definition
10's deg

Wind Spd Definition
km/h
Visibility Definition
km
Stn Press Definition
kPa
Hmdx Definition


Wind Chill Definition


Weather Definition


00:00 16.3 11.0 71   LegendMM LegendMM LegendMM 100.39     LegendNANA
01:00 15.8 11.3 75   LegendMM LegendMM LegendMM 100.46     LegendNANA
02:00 15.5 11.4 77   LegendMM LegendMM LegendMM 100.46     LegendNANA
03:00 15.1 11.7 80   LegendMM LegendMM LegendMM 100.53     LegendNANA
04:00 14.4 11.4 82   LegendMM LegendMM LegendMM 100.58     LegendNANA
05:00 15.1 11.8 81   LegendMM LegendMM LegendMM 100.61     LegendNANA
06:00 14.8 10.8 77   LegendMM LegendMM LegendMM 100.71     LegendNANA
07:00 15.5 10.7 73   LegendMM LegendMM LegendMM 100.74     LegendNANA
08:00 17.1 9.3 60   LegendMM LegendMM LegendMM 100.80     LegendNANA
09:00 18.2 11.1 63   LegendMM LegendMM LegendMM 100.79     LegendNANA
10:00 19.4 11.8 61   LegendMM LegendMM LegendMM 100.81     LegendNANA
11:00 19.6 13.0 66   LegendMM LegendMM LegendMM 100.77     LegendNANA
12:00 20.4 13.4 64   LegendMM LegendMM LegendMM 100.69     LegendNANA
13:00 22.2 13.3 57   LegendMM LegendMM LegendMM 100.70 25   LegendNANA
14:00 22.4 12.4 53   LegendMM LegendMM LegendMM 100.63 25   LegendNANA
15:00 22.6 11.9 51   LegendMM LegendMM LegendMM 100.53 25   LegendNANA
16:00 20.8 11.9 57   LegendMM LegendMM LegendMM 100.47     LegendNANA
17:00 20.2 12.2 60   LegendMM LegendMM LegendMM 100.44     LegendNANA
18:00 19.1 13.1 68   LegendMM LegendMM LegendMM 100.43     LegendNANA
19:00 18.5 14.4 77   LegendMM LegendMM LegendMM 100.39     LegendNANA
20:00 18.4 14.7 79   LegendMM LegendMM LegendMM 100.33     LegendNANA
21:00 18.6 15.4 82   LegendMM LegendMM LegendMM 100.28     LegendNANA
22:00 18.8 16.6 87   LegendMM LegendMM LegendMM 100.27     LegendNANA
23:00 18.7 16.7 88   LegendMM LegendMM LegendMM 100.18     LegendNANA

Notes on Data Quality.

Legend

  • E = Estimated
  • M = Missing
  • NA = Not Available*
  • [empty] = Indicates an unobserved value
Date modified: